This demonstration page uses our WeatherBlox Daily Observations layout. Learn more.

Left ArrowRight Arrow

Hourly Observations for March 30, 2019

Temp ( °F °C ) Dew Point ( °F °C ) Humidity (%) Winds ( mph kmh ) Pressure ( in mb ) Visibility ( mi km ) Precip ( " mm )
12:52 am 00:52 Cloudy 39 3.9 29 -1.7 67 67 N 17 28 30.06 1018 10 16 0.00 0.00
1:52 am 01:52 Cloudy 39 3.9 28 -2.2 65 65 N 13 20 30.06 1018 10 16 0.00 0.00
2:52 am 02:52 Cloudy 39 3.9 29 -1.7 67 67 NNW 12 19 30.07 1018 10 16 0.00 0.00
3:52 am 03:52 Cloudy 39 3.9 29 -1.7 67 67 NNW 13 20 30.07 1018 10 16 0.00 0.00
4:52 am 04:52 Cloudy 39 3.9 30 -1.1 70 70 N 17 28 30.08 1019 10 16 0.00 0.00
5:52 am 05:52 Cloudy 38 3.3 31 -0.6 76 76 N 21 33 30.07 1018 10 16 0.00 0.00
6:40 am 06:40 Cloudy 38 3.3 31 -0.6 76 76 N 22 35 30.13 1020 10 16 0.00 0.00
6:52 am 06:52 Cloudy 38 3.3 30 -1.1 73 73 N 20 31 30.11 1020 10 16 0.00 0.00
7:52 am 07:52 Cloudy 35 1.7 27 -2.8 72 72 NNW 25 41 30.16 1022 10 16 0.00 0.00
8:52 am 08:52 Cloudy 33 0.6 24 -4.4 70 70 NNW 23 37 30.23 1024 10 16 0.00 0.00
9:52 am 09:52 Mostly Cloudy 34 1.1 24 -4.4 67 67 N 24 39 30.25 1024 10 16 0.00 0.00
10:52 am 10:52 Mostly Cloudy 36 2.2 20 -6.7 52 52 N 25 41 30.27 1025 10 16 0.00 0.00
11:52 am 11:52 Mostly Cloudy 38 3.3 19 -7.2 46 46 NNW 22 35 30.29 1026 10 16 0.00 0.00
12:52 pm 12:52 Mostly Cloudy 40 4.4 18 -7.8 41 41 N 26 43 30.29 1026 10 16 0.00 0.00
1:52 pm 13:52 Partly Cloudy 42 5.6 18 -7.8 38 38 NNW 20 31 30.29 1026 10 16 0.00 0.00
2:52 pm 14:52 Mostly Sunny 44 6.7 17 -8.3 34 34 NNW 21 33 30.27 1025 10 16 0.00 0.00
3:52 pm 15:52 Mostly Sunny 44 6.7 16 -8.9 32 32 NNW 26 43 30.27 1025 10 16 0.00 0.00
4:52 pm 16:52 Sunny 43 6.1 16 -8.9 34 34 N 22 35 30.28 1025 10 16 0.00 0.00
5:52 pm 17:52 Sunny 42 5.6 14 -10 32 32 NNW 23 37 30.29 1026 10 16 0.00 0.00
6:52 pm 18:52 Sunny 40 4.4 16 -8.9 38 38 NNW 24 39 30.31 1027 10 16 0.00 0.00
7:52 pm 19:52 Clear 38 3.3 15 -9.4 39 39 NNW 20 31 30.34 1027 10 16 0.00 0.00
8:52 pm 20:52 Clear 37 2.8 17 -8.3 44 44 N 16 26 30.37 1029 10 16 0.00 0.00
9:52 pm 21:52 Clear 35 1.7 19 -7.2 52 52 NNW 12 19 30.40 1029 10 16 0.00 0.00
10:52 pm 22:52 Clear 32 0 19 -7.2 59 59 NNW 9 15 30.42 1030 10 16 0.00 0.00
11:52 pm 23:52 Clear 33 0.6 18 -7.8 54 54 NNW 12 19 30.43 1031 10 16 0.00 0.00

Powered by AerisWeather